User: anonymous   Login
Location: Songkhla
(7.2000°N, 100.6000°E)
Time: 12:28:33
(UTC+07:00)
Language:

BEESAT - Orbit

View from above orbital plane
View from above orbital plane
View from above satellite
View from above satellite

Ground track
Ground track

The orbit data is extracted from the following two-line orbital elements,

1 35933U 09051C   21209.53648670  .00000125  00000-0  39063-4 0  9994
2 35933  98.5967  52.6469 0005428 347.5395  12.5667 14.56612881629013
Epoch (UTC): 28 July 2021 12:52:32
Eccentricity: 0.0005428
inclination: 98.5967°
perigee height: 700 km
apogee height: 708 km
right ascension of ascending node: 52.6469°
argument of perigee: 347.5395°
revolutions per day: 14.56612881
mean anomaly at epoch: 12.5667°
orbit number at epoch: 62901

The dashed part of the orbit path shows where the satellite is in the earth's shadow,  

DLR